Regional Weather Roundup
Issued by NWS

Home | Current Version | Previous Version | Graphics & Text | Print | Product List | Glossary On
Versions: 1 2 3 4 5 6 7 8 9 10 11 12 13 14 15 16 17 18 19 20 21 22 23 24 25 26 27 28 29 30 31 32 33 34 35 36 37 38 39 40 41 42 43 44 45 46 47 48 49 50
000
ASUS43 KIND 011809
RWRIN

WEATHER ROUNDUP FOR INDIANA
NATIONAL WEATHER SERVICE INDIANAPOLIS IN
100 PM EST SUN MAR 01 2015

NOTE: "FAIR" INDICATES FEW OR NO CLOUDS BELOW 12,000 FEET WITH NO
SIGNIFICANT WEATHER AND/OR OBSTRUCTIONS TO VISIBILITY.

* - STATION DOES NOT REPORT WEATHER SUCH AS PRECIPITATION OR FOG.

+ - STATION NOT QUALITY CONTROLLED BY THE NATIONAL WEATHER SERVICE.
    USE DATA WITH CAUTION...ESPECIALLY DEWPOINT AND RELATIVE
    HUMIDITY OBSERVATIONS.

INZ001>003-010>013-019-020-011900-
NORTHWEST INDIANA

CITY           SKY/WX    TMP DP  RH WIND       PRES   REMARKS
GARY /AIRPORT/ LGT SNOW  25  16  68 W5        30.36F WCI  19
KNOX *+          N/A     23  12  63 CALM      30.33F VSB 1
LA PORTE +     LGT SNOW  24  19  80 CALM      30.34F
6HR MIN TEMP:  18; 6HR MAX TEMP:  24; 6HR PCP:  0.01;

MICHIGAN CITY+ LGT SNOW  23  18  80 CALM      30.34F VSB 3/4
MONTICELLO +   LGT SNOW  23  21  91 CALM      30.33F
6HR MIN TEMP:  19; 6HR MAX TEMP:  24; 6HR PCP:  0.07;

RENSSELAER +   LGT SNOW  27  25  93 CALM      30.35F
VALPARAISO     LGT SNOW  22  18  85 CALM      30.34F FOG
6HR MIN TEMP:  16; 6HR MAX TEMP:  22; 6HR PCP:  0.05;


$$

LMZ046-743>745-011900-
SOUTHERN LAKE MICHIGAN

STATION/POSITION TIME  TEMP WIND        PRES
                       AIR  DIR/SP/G
                 (UTC) (F)  (DEG/KT/KT) (MB)
MICHIGAN CITY    1800   21  180/  3/  4   N/A

$$

INZ004-005-014>016-021>024-011900-
NORTH CENTRAL INDIANA

CITY           SKY/WX    TMP DP  RH WIND       PRES   REMARKS
ELKHART        LGT SNOW  25  16  68 CALM      30.34F
GOSHEN         LGT SNOW  21  18  88 CALM      30.32F VSB 3/4
6HR MIN TEMP:  17; 6HR MAX TEMP:  22; 6HR PCP:  0.10;

LOGANSPORT +   LGT SNOW  23  21  93 S3        30.33F VSB 1
PERU/GRISSOM   LGT SNOW  24  20  88 CALM      30.31F FOG
6HR MIN TEMP:  19; 6HR MAX TEMP:  25; 6HR PCP:  0.13;

ROCHESTER +    LGT SNOW  30  23  74 CALM      30.32F
SOUTH BEND     LGT SNOW  21  17  84 SW3       30.34F VSB 3/4
6HR MIN TEMP:  17; 6HR MAX TEMP:  21; 6HR PCP:  0.05;

WARSAW +       LGT SNOW  25  21  86 CALM      30.32F

$$

INZ006>009-017-018-025>027-011900-
NORTHEAST INDIANA

CITY           SKY/WX    TMP DP  RH WIND       PRES   REMARKS
ANGOLA *+      CLOUDY    23  18  80 CALM      30.30F
FORT WAYNE     LGT SNOW  23  19  85 CALM      30.33F FOG
6HR MIN TEMP:  17; 6HR MAX TEMP:  24; 6HR PCP:  0.12;

HUNTINGTON +   LGT SNOW  24  17  77 CALM      30.32F
6HR MIN TEMP:  17; 6HR MAX TEMP:  24; 6HR PCP:  0.07;


$$

INZ028-029-035-036-043>045-051>053-011900-
WEST CENTRAL INDIANA

CITY           SKY/WX    TMP DP  RH WIND       PRES   REMARKS
CRAWFORDSVL +  LGT SNOW  26  20  77 CALM      30.32F
6HR MIN TEMP:  22; 6HR MAX TEMP:  27; 6HR PCP:  0.05;

GREENCASTLE +  LGT SNOW  30  25  80 CALM      30.32F
LAFAYETTE      LGT SNOW  26  23  88 CALM      30.34F VSB 3/4
6HR MIN TEMP:  20; 6HR MAX TEMP:  26; 6HR PCP:  0.04;

TERRE HAUTE    CLOUDY    31  27  85 N5        30.34F FOG     WCI  26
6HR MIN TEMP:  26; 6HR MAX TEMP:  31; 6HR PCP:  0.07;


$$

INZ030>032-037>040-046>048-054>057-064-065-011900-
CENTRAL INDIANA

CITY           SKY/WX    TMP DP  RH WIND       PRES   REMARKS
CP ATTERBURY + DRIZZLE   32  30  93 N3        30.33F
COLUMBUS       CLOUDY    30  27  86 CALM      30.34F FOG
FRANKFORT +    LGT SNOW  28  24  86 NW3       30.33F
6HR MIN TEMP:  22; 6HR MAX TEMP:  28; 6HR PCP:  0.10;

GREENWOOD *+   CLOUDY    30  27  86 CALM      30.31F
INDIANAPOLIS   DRIZZLE   30  26  85 NW6       30.31F FOG     WCI  24
6HR MIN TEMP:  24; 6HR MAX TEMP:  30; 6HR PCP:  0.15;

-EAGLE CREEK   CLOUDY    29  26  89 NW6       30.31F FOG     WCI  23
6HR MIN TEMP:  24; 6HR MAX TEMP:  29; 6HR PCP:  0.12;

KOKOMO *+        N/A     27  21  80 N3        30.33F VSB 1/2
6HR MIN TEMP:  19; 6HR MAX TEMP:  27; 6HR PCP:  0.05;

MARION +       LGT SNOW  25  21  86 NW3       30.33F
MT COMFORT *+  CLOUDY    32  25  74 N5        30.32F WCI  27
SHELBYVILLE    CLOUDY    33  28  81 N3        30.31F HAZE
6HR MIN TEMP:  27; 6HR MAX TEMP:  33; 6HR PCP:  0.06;

ZIONSVILLE +   LGT SNOW  29  24  81 CALM      30.31F
6HR MIN TEMP:  23; 6HR MAX TEMP:  29; 6HR PCP:  0.07;


$$

INZ033-034-041-042-049-050-058-059-011900-
EAST CENTRAL INDIANA

CITY           SKY/WX    TMP DP  RH WIND       PRES   REMARKS
MUNCIE         LGT SNOW  28  25  88 N5        30.30F VSB 1   WCI  23
6HR MIN TEMP:  24; 6HR MAX TEMP:  28; 6HR PCP:  0.12;


$$

INZ060-061-067>069-081>083-085>088-011900-
SOUTHWEST INDIANA

CITY           SKY/WX    TMP DP  RH WIND       PRES   REMARKS
EVANSVILLE     CLOUDY    35  29  78 NW5       30.36F WCI  31
6HR MIN TEMP:  33; 6HR MAX TEMP:  36; 6HR PCP: TRACE;

HUNTINGBURG *+ PTSUNNY   34  28  80 W3        30.35S
6HR MIN TEMP:  32; 6HR MAX TEMP:  34;

WASHINGTON +   CLOUDY    32  29  88 CALM      30.34F FOG
6HR MIN TEMP:  31; 6HR MAX TEMP:  32; 6HR PCP:  0.02;


$$

INZ062-063-066-070>080-084-089>092-011900-
SOUTH CENTRAL AND SOUTHEAST INDIANA

CITY           SKY/WX    TMP DP  RH WIND       PRES   REMARKS
BLOOMINGTON    MIX PCPN  32  30  92 N5        30.32F FOG     WCI  27
6HR MIN TEMP:  27; 6HR MAX TEMP:  32; 6HR PCP:  0.08;

NORTH VERNON + CLOUDY    34  34 100 CALM      30.33F FOG
SEYMOUR +      CLOUDY    34  32  93 CALM      30.33F

$$



USA.gov is the U.S. government's official web portal to all federal, state and local government web resources and services.